Regional Weather Roundup
Issued by NWS

Home | Current Version | Previous Version | Text Only | Print | Product List | Glossary On
Versions: 1 2 3 4 5 6 7 8 9 10 11 12 13 14 15 16 17 18 19 20 21 22 23 24 25 26 27 28
000
ASUS45 KBOI 031210
RWRID

IDAHO REGIONAL WEATHER ROUNDUP
NATIONAL WEATHER SERVICE BOISE ID
600 AM MDT TUE AUG 03 2021

NOTE: "FAIR" INDICATES FEW OR NO CLOUDS BELOW 12000 FEET
WITH NO SIGNIFICANT WEATHER AND/OR OBSTRUCTIONS TO VISIBILITY

IDZ012-014-031300-
SOUTHWEST IDAHO


CITY           SKY/WX    TMP DP  RH WIND       PRES   REMARKS
BOISE          CLEAR     69  60  73 SE10      30.15S
CALDWELL       CLEAR     69  60  73 E9        30.13S
MOUNTAIN HOME  CLEAR     64 N/A N/A E7        30.17R
$$

IDZ016-017-031300-
SOUTHCENTRAL IDAHO


CITY           SKY/WX    TMP DP  RH WIND       PRES   REMARKS
BURLEY           N/A    N/A N/A N/A MISG      30.24S
JEROME         CLEAR     62  56  80 E13       30.23S
TWIN FALLS     CLEAR     60  51  72 SW7       30.24S
$$

IDZ019>023-031300-
SOUTHEAST IDAHO


CITY           SKY/WX    TMP DP  RH WIND       PRES   REMARKS
IDAHO FALLS    CLEAR     59  58  96 SE5       30.30S
POCATELLO      CLEAR     52  50  93 CALM      30.29R
REXBURG        CLEAR     58  56  93 CALM      30.30F
$$

IDZ006-010-011-018-031-032-031300-
CENTRAL IDAHO MOUNTAINS


CITY           SKY/WX    TMP DP  RH WIND       PRES   REMARKS
MCCALL         PTCLDY    54  49  83 CALM      30.27S
HAILEY         CLEAR     55  50  82 N8        30.33F
STANLEY          N/A     44  42  93 CALM      30.42R
SALMON         PTCLDY    55  54  96 CALM      30.30S FOG
CHALLIS        CLEAR     55  54  96 CALM      30.34S
$$

IDZ002-004-006-007-026-031300-
NORTHERN IDAHO


CITY           SKY/WX    TMP DP  RH WIND       PRES   REMARKS
LEWISTON       CLEAR     72  49  44 S3        30.07R
LOWELL           N/A     67  65  93 CALM      30.14R
COEUR D`ALENE  CLEAR     67  60  78 NE7       30.12R HAZE
MULLAN PASS    CLOUDY    63  49  60 NW5       30.33S HAZE
$$



USA.gov is the U.S. government's official web portal to all federal, state and local government web resources and services.